Home   Weather   Ontario   Past weeks

Flag for USA Past Weather in Ontario, California, USA — Yesterday and Last 2 Weeks

Now
49 °F

Passing clouds.


Feels Like: 47 °F
Forecast: 49 / 58 °F
Wind: 5 mph from West

Location: Ontario International Airport

Current Time: Feb 19, 2017 at 4:11:50 am

Latest Report: Feb 19, 2017 at 3:09 am


Visibility: 10 mi

Pressure: 29.78 "Hg

Humidity: 93%

Dew Point: 47 °F

Location of OntarioLocation

Past Weather in Ontario — Graph

°F

Ontario Temperature Yesterday

Maximum temperature yesterday: 58 °F (at 11:53 am)
Minimum temperature yesterday: 49 °F (at 12:17 am)
Average temperature yesterday: 53 °F

High & Low Weather Summary for the Past Weeks

 TemperatureHumidityPressure
High79 °F (Feb 9, 1:53 pm)100% (Feb 4, 3:30 am)30.21 "Hg (Feb 4, 3:30 am)
Low44 °F (Feb 12, 6:53 am)17% (Feb 15, 1:53 pm)29.49 "Hg (Feb 17, 6:53 pm)
Average57 °F79%29.99 "Hg
* Reported Feb 4 3:30 am — Feb 19 3:09 am, Ontario, Weather by CustomWeather, © 2017

Note: Actual official high and low records may vary slightly from our data, if they occured in-between our weather recording intervals... More about our weather records

Advertising

Ontario Weather History for the Previous 24 Hours

Scroll right to see more
 ConditionsComfort  
Time TempWeatherWind HumidityBarometerVisibility
3:09 am
Sun, Feb 19
49 °FPassing clouds.5 mph93%29.78 "Hg10 mi
2:53 am50 °FPartly cloudy.3 mph93%29.77 "Hg10 mi
1:53 am52 °FMostly cloudy.6 mph89%29.75 "Hg10 mi
12:53 am52 °FOvercast.5 mph89%29.75 "Hg10 mi
11:53 pm
Sat, Feb 18
52 °FOvercast.3 mph93%29.74 "Hg10 mi
10:53 pm53 °FMostly cloudy.8 mph89%29.72 "Hg10 mi
9:53 pm53 °FMostly cloudy.7 mph89%29.71 "Hg10 mi
8:53 pm53 °FMostly cloudy.7 mph89%29.68 "Hg10 mi
7:53 pm53 °FPartly cloudy.3 mph89%29.65 "Hg10 mi
6:53 pm54 °FMostly cloudy.8 mph90%29.63 "Hg10 mi
6:01 pm54 °FOvercast.9 mph86%29.60 "Hg10 mi
4:53 pm56 °FBroken clouds.6 mph81%29.57 "Hg10 mi
3:53 pm55 °FBroken clouds.3 mph90%29.57 "Hg10 mi
2:53 pm54 °FRain. Fog.6 mph86%29.56 "Hg6 mi
1:53 pm57 °FBroken clouds.9 mph69%29.54 "Hg10 mi
12:53 pm57 °FBroken clouds.6 mph72%29.54 "Hg10 mi
11:53 am58 °FBroken clouds.3 mph67%29.55 "Hg10 mi
10:53 am55 °FPartly sunny.No wind77%29.56 "Hg10 mi
9:53 am53 °FBroken clouds.6 mph83%29.59 "Hg10 mi
8:53 am53 °FBroken clouds.5 mph86%29.57 "Hg10 mi
8:37 am52 °FPartly sunny.5 mph86%29.56 "Hg10 mi
7:53 am51 °FBroken clouds.No wind96%29.54 "Hg10 mi
6:53 am49 °FPartly sunny.No wind97%29.54 "Hg10 mi
5:53 am50 °FPassing clouds.No wind89%29.52 "Hg10 mi
4:53 am50 °FOvercast.No wind93%29.51 "Hg10 mi
Weather by CustomWeather, © 2017

See weather overviewHow to use our weather pages